Weather in Gergebil

Russia / Republic of Dagestan     42°30′11″N   47°04′05″E
temp.,
°C
wind,
m/s
gust,
m/s
humid.,
%
clouds,
%
prec.,
mm/h
press.,
hPa
HPBL,
m
16 april, fri
fri1600:00+7ssw0067100 0.0 101810
03:00+6s00715 0.0 101910
06:00+6ssw11645 0.0 102016
09:00+10ene11566 0.0 1019801
12:00+14ne233976 0.0 10172030
15:00+13ne325198 0.2 10171525
18:00+12ne22588 0.2 1017523
21:00+8sw11755 0.5 102011
17 april, sat
sat1700:00+8sw22644 0.0 102015
03:00+7ssw22645 0.0 102012
06:00+7ssw226376 0.0 102026
09:00+14s113754 0.0 1017553
12:00+18nne322887 0.0 10151467
15:00+16ne544699 0.0 1016912
18:00+13ne336589 0.0 1018651
21:00+10ene2177100 0.0 101920
18 april, sun
sun1800:00+9ne1181100 0.0 101913
03:00+8nne218477 0.0 101915
06:00+8nne118681 0.0 101959
09:00+11ne2169100 0.0 1018749
12:00+15ne325477 0.0 10151304
15:00+15ne435958 0.0 10141001
18:00+12nne2274100 1.1 1016405
21:00+10n228596 2.8 1019183
19 april, mon
mon1900:00+9nne1182100 0.4 1019259
03:00+9sw1190100 0.4 101810
06:00+9sw1186100 0.0 101833
09:00+14ene1164100 0.0 1017593
12:00+18ne324725 0.0 10151613
15:00+16ene3357100 0.1 10151025
18:00+15ne2260100 0.1 1015400
21:00+12e117195 0.1 101617
20 april, tue
tue2000:00+12ssw227395 0.0 101514
03:00+11ssw2264100 0.0 101416
06:00+12ssw2264100 0.0 101323
09:00+17s1145100 0.0 1011280
12:00+20se1234100 0.0 1008392
15:00+25ese0423100 0.0 10041681
18:00+21ssw3436100 0.0 100450
21:00+13sw3479100 1.5 1011225